Wind_Speed
16 13 14 12 9 7 13 9 5 12 13 18 16 11 12 13 8 7 10 15 18 15 12 12 11 10 8 8 10 14 12 10 10 10 11 11 10 9 8 8 9 8 9 9 9 8 8 8 6
18 17 14 13 9 11 13 12 8 13 13 16 12 13 9 12 9 5 9 15 18 16 14 13 12 10 8 6 8 11 15 13 11 12 12 12 11 11 9 8 9 9 9 9 8 8 7 6 6
14 17 15 12 15 17 12 9 17 14 16 12 17 17 13 17 14 8 7 13 16 16 16 14 13 10 8 5 5 8 13 17 13 10 10 13 13 12 11 10 10 9 8 8 8 8 7 7 6
18 15 16 16 15 22 15 9 12 13 13 10 11 18 16 13 16 12 14 12 16 16 17 16 14 11 9 5 2 4 8 12 16 11 11 10 11 12 12 11 11 10 10 10 10 9 9 8 8
26 13 19 17 22 25 15 4 8 12 9 14 16 14 14 11 11 15 16 16 13 14 17 19 17 14 11 9 5 2 4 7 11 14 10 11 10 10 11 12 12 11 11 11 10 10 10 9 9
39 22 16 25 27 22 12 12 14 10 13 17 11 14 12 14 12 14 16 16 15 16 17 20 19 16 13 12 9 6 3 2 6 9 11 8 7 8 8 9 10 9 9 9 9 9 9 9 9
41 40 29 20 24 25 14 9 11 16 15 15 10 14 14 13 14 14 13 13 12 14 15 17 17 16 15 14 13 11 7 3 1 3 5 7 7 4 6 7 7 7 7 7 8 8 8 8 8
44 41 41 24 22 23 13 12 15 18 16 12 11 12 16 15 14 13 12 13 11 11 12 14 16 17 17 17 16 14 13 9 5 3 0 1 2 4 5 3 4 4 4 4 5 6 6 7 7
37 36 37 41 30 34 10 6 19 17 20 16 16 14 9 14 15 13 12 12 11 11 11 12 14 17 17 17 17 17 16 15 11 8 7 5 5 4 2 3 4 5 5 5 5 5 5 6 7
40 45 41 31 33 27 20 10 12 21 23 12 13 17 13 15 16 16 15 13 13 11 13 14 14 14 14 16 17 17 18 17 15 14 13 11 10 8 6 5 5 5 7 8 8 8 8 9 10
38 42 41 30 31 35 28 20 10 20 25 24 14 18 21 17 17 16 14 13 13 14 14 15 14 16 16 14 15 17 17 18 17 17 17 17 15 13 12 11 10 10 10 10 11 11 11 12 14
36 40 36 34 25 30 27 19 16 21 22 26 22 15 23 20 19 18 16 15 14 14 14 12 12 12 14 17 18 17 16 18 19 19 20 20 18 17 16 16 16 16 16 16 15 15 15 15 15
36 29 30 25 33 31 25 20 29 15 23 18 17 20 23 21 23 21 19 18 19 17 16 15 14 15 14 15 17 18 18 18 19 20 21 22 22 21 20 21 21 21 21 21 21 20 20 20 20
35 25 20 22 26 19 21 24 20 16 21 23 17 19 23 24 21 23 25 26 25 22 20 20 19 18 19 19 21 21 21 21 22 22 22 22 22 23 23 24 24 25 25 25 24 25 25 24 24
10 29 18 20 36 25 24 22 28 20 20 24 26 24 26 26 24 22 23 26 28 27 26 24 24 23 24 23 20 21 23 23 22 22 22 22 23 24 26 26 25 27 29 29 30 30 29 28 27
15 17 24 21 37 24 26 30 30 33 30 30 26 27 30 29 24 22 23 24 27 29 30 29 28 28 28 26 23 23 23 24 25 24 24 25 25 27 28 28 26 26 26 27 29 29 29 29 28
27 16 28 21 34 32 33 39 32 21 28 31 29 27 24 22 25 24 25 26 28 28 29 29 30 27 27 29 27 26 27 27 27 27 29 28 28 27 29 30 29 29 28 28 28 29 28 28 28
40 34 32 31 31 30 34 30 15 24 23 23 27 28 25 24 24 25 28 30 28 31 32 32 32 30 31 30 30 29 31 31 31 31 32 33 34 32 32 30 32 31 32 33 33 34 34 34 33
30 26 20 25 22 19 27 32 28 20 22 22 24 22 22 27 27 30 31 32 29 31 33 32 31 34 35 36 36 33 31 32 33 34 34 35 35 36 37 36 34 35 34 32 33 35 36 34 32
16 13 23 15 21 23 21 24 33 31 32 29 29 24 24 24 28 30 32 32 35 34 32 33 33 33 34 35 36 39 38 37 36 36 38 39 40 42 42 41 38 37 38 37 36 36 37 36 34
22 17 13 19 17 24 18 22 25 35 35 34 31 29 30 30 32 35 35 35 32 32 31 31 32 33 33 35 36 37 38 39 38 38 36 35 37 40 42 44 44 42 42 42 42 41 40 38 37
21 16 10 17 21 12 13 7 17 28 34 33 34 31 31 32 33 37 36 33 31 31 32 31 31 32 32 33 33 33 35 37 36 37 38 35 33 34 36 38 42 45 44 45 45 46 44 43 42
16 13 13 20 15 9 9 8 23 21 25 32 33 34 33 34 34 36 36 33 33 30 30 29 29 29 29 28 29 29 30 32 34 35 36 34 32 32 33 36 38 39 40 40 42 45 45 47 46
16 19 15 12 10 4 19 19 11 22 28 19 26 29 31 33 32 30 29 29 27 25 25 25 25 25 27 27 27 29 30 30 31 31 32 33 31 31 33 33 33 36 39 38 37 37 41 45 48
21 23 4 1 2 6 10 19 24 8 18 21 23 23 24 25 24 25 21 20 21 20 21 22 24 26 27 28 28 30 31 33 33 33 34 34 36 37 38 36 32 29 34 36 36 37 37 39 41
26 24 9 6 5 4 11 14 20 23 16 15 16 19 20 21 21 19 17 17 17 18 19 21 23 25 27 28 29 32 34 36 36 37 37 37 38 37 38 37 34 34 33 35 38 41 41 43 44
33 24 14 3 4 3 9 11 12 15 18 21 20 16 15 17 16 14 14 15 18 19 21 24 26 27 29 30 31 32 34 35 36 35 34 34 34 35 35 36 36 36 36 34 38 40 40 43 42
22 23 11 9 2 4 7 8 14 24 24 23 23 19 17 16 15 13 14 18 20 21 23 25 25 26 26 26 27 28 29 30 29 28 27 27 28 30 32 34 36 37 38 38 40 42 44 44 44
27 28 14 12 6 3 2 5 10 17 20 26 24 20 18 15 13 14 16 18 19 21 23 24 23 22 22 22 22 21 22 22 19 18 21 22 24 25 27 29 30 32 33 33 35 38 39 40 39
32 27 27 10 6 6 3 4 6 9 15 22 24 24 17 12 12 15 17 17 18 20 22 22 21 20 21 20 19 18 19 20 19 18 22 24 24 24 25 25 26 27 27 27 27 29 30 30 32
Wind_Direction
213 205 202 192 198 202 217 183 175 191 167 196 213 199 173 185 216 226 170 152 170 167 170 162 156 151 127 91 62 52 51 55 56 53 47 47 49 52 55 53 53 68 79 78 76 76 80 84 86
218 213 204 198 202 205 210 188 219 223 213 195 202 195 184 184 204 165 163 160 174 179 183 176 169 166 154 107 73 49 39 50 58 54 55 54 53 53 57 58 60 66 68 69 70 71 72 74 74
209 219 211 205 212 200 192 219 216 218 235 217 206 195 197 205 206 203 159 169 181 189 192 189 184 182 173 140 93 56 40 37 41 48 53 54 54 56 56 56 58 63 67 68 71 73 76 74 70
211 221 215 216 205 200 166 58 187 192 203 225 169 186 204 208 223 219 212 170 190 196 200 201 201 198 193 181 134 67 52 28 30 38 50 56 56 57 62 64 66 67 69 71 72 71 68 65 61
216 215 218 225 212 200 206 205 190 205 224 185 166 177 206 193 200 227 229 212 192 197 205 207 208 209 209 206 193 141 64 44 25 27 42 54 57 61 61 64 67 67 67 66 65 64 62 59 56
217 227 226 216 216 196 204 193 231 193 158 165 189 174 192 199 210 203 218 222 215 209 209 211 213 215 216 219 219 205 175 40 40 34 29 44 61 55 57 64 64 65 66 65 62 60 57 53 47
217 218 224 212 205 221 196 192 195 182 181 187 181 193 188 181 188 195 200 201 183 193 204 210 215 220 226 228 228 227 222 216 137 66 54 34 35 49 49 54 59 62 63 63 61 57 49 41 35
215 220 219 222 206 200 173 233 245 210 178 187 225 195 188 184 194 204 206 207 193 183 198 209 217 224 227 229 231 232 233 231 215 211 244 66 50 28 24 18 27 31 37 36 39 41 31 22 13
219 208 216 220 206 178 182 163 213 206 186 198 228 218 191 193 197 204 204 210 205 198 206 212 220 228 233 237 239 238 240 239 241 234 226 237 283 295 306 345 338 324 333 342 347 343 342 342 341
208 203 230 212 207 199 205 196 189 200 196 211 208 218 188 193 201 206 214 216 221 227 232 235 235 237 240 245 247 247 247 248 248 247 250 245 241 241 252 241 265 288 299 307 306 308 312 312 317
210 228 223 225 215 238 235 204 191 228 215 208 223 218 214 194 199 206 214 225 239 246 243 241 247 246 244 245 248 249 251 252 252 252 255 256 256 251 254 257 261 265 267 277 286 290 294 299 300
208 224 229 233 232 234 228 209 183 225 227 210 213 224 226 206 202 208 220 233 239 239 249 249 250 249 251 254 257 257 256 256 256 256 256 258 256 258 262 265 263 263 261 264 270 274 282 286 291
211 218 220 212 230 237 234 232 212 211 224 213 216 221 234 223 217 216 219 228 237 242 244 254 263 267 267 264 261 261 261 261 261 260 259 261 262 262 260 261 264 266 267 269 266 267 272 275 278
213 206 189 210 220 234 231 215 183 200 206 210 206 221 228 238 236 230 230 234 236 237 247 251 255 261 269 269 264 262 258 260 259 258 258 260 267 268 268 267 267 267 268 269 270 271 271 272 274
154 195 182 209 212 230 229 215 214 195 217 217 219 215 225 234 238 242 239 236 241 241 239 241 251 256 266 270 265 265 264 264 265 264 266 267 268 271 270 270 271 273 271 270 269 269 270 274 278
160 181 192 216 203 226 229 230 223 224 231 241 233 226 230 235 238 239 243 250 248 247 245 243 246 253 261 268 263 264 264 265 265 266 268 271 275 278 277 277 275 276 278 278 277 277 277 277 279
191 191 199 191 209 223 231 238 234 237 226 233 239 246 244 236 230 235 242 245 245 249 255 254 251 251 253 257 259 258 265 267 271 272 274 274 275 281 281 278 277 275 276 277 280 281 281 282 283
187 198 198 202 206 224 231 235 227 231 227 232 229 238 240 237 236 241 244 244 245 249 249 252 263 265 262 258 254 254 255 263 269 271 274 279 280 280 280 280 280 279 275 274 276 280 280 279 280
195 203 205 219 216 222 234 238 217 222 222 231 240 240 241 234 236 240 244 249 248 249 254 256 253 258 269 275 276 269 262 258 256 266 273 277 279 282 282 281 277 278 280 278 274 276 279 280 280
174 186 195 201 215 225 240 246 241 225 234 238 248 240 233 235 236 240 244 246 250 252 253 255 257 257 260 264 267 272 275 272 267 261 260 263 270 277 280 280 279 276 278 277 275 275 276 275 273
192 207 218 221 198 209 221 245 237 234 234 237 244 245 241 240 244 246 248 250 254 258 260 259 258 259 260 262 265 269 271 272 273 274 271 266 263 264 269 274 275 274 273 275 277 275 274 275 274
206 197 227 211 206 204 227 271 256 247 242 236 241 246 243 242 239 247 252 255 257 258 258 258 259 258 258 259 260 261 265 269 272 271 272 270 265 261 261 265 269 272 271 271 273 276 275 273 274
215 213 214 203 199 209 228 245 261 234 230 227 234 240 241 241 241 245 252 257 257 258 260 259 258 259 261 263 264 264 265 265 266 270 272 272 272 269 263 259 262 268 272 270 270 271 270 274 274
198 187 189 189 210 254 232 215 250 232 229 229 232 237 241 244 246 249 249 251 256 257 259 260 262 263 263 263 265 266 266 268 269 270 272 275 274 270 269 267 265 264 265 270 271 269 268 270 274
171 176 109 102 189 223 209 217 231 235 236 235 241 244 236 233 237 242 245 248 250 252 256 261 263 264 266 268 268 268 268 268 269 270 271 272 273 274 275 274 272 261 263 268 272 275 274 275 275
189 180 175 187 194 213 215 222 235 241 239 233 233 233 235 230 230 235 240 248 255 257 259 262 265 267 270 271 270 270 271 271 272 271 270 270 270 272 274 277 278 274 271 271 274 275 276 277 276
193 201 206 250 232 146 200 228 235 224 218 227 233 232 225 226 233 233 240 251 258 263 267 268 269 272 272 272 272 271 271 272 273 274 274 272 273 272 273 275 277 277 277 276 276 280 281 280 278
190 191 206 215 222 237 224 218 216 209 218 219 224 232 229 229 231 239 253 260 266 270 272 273 275 272 272 272 272 273 274 274 275 277 277 277 275 275 275 274 276 278 280 281 280 280 280 279 279
199 200 202 203 233 206 183 234 213 225 230 232 230 227 230 229 246 258 261 266 272 274 274 273 275 273 272 273 275 276 278 278 278 277 275 274 275 275 278 279 279 278 278 278 278 280 282 282 280
213 213 211 214 205 230 267 256 200 205 214 219 226 222 227 239 250 258 267 272 277 281 281 278 271 268 269 272 277 279 277 276 276 274 275 277 277 277 278 278 277 277 276 277 279 284 286 287 287
Height
3154 3156 3157 3159 3164 3161 3160 3163 3164 3165 3166 3167 3170 3173 3172 3174 3176 3182 3182 3184 3187 3190 3193 3195 3196 3197 3198 3198 3198 3197 3197 3196 3195 3193 3192 3191 3190 3189 3189 3189 3188 3188 3188 3188 3188 3188 3187 3188 3188
3152 3154 3155 3156 3158 3158 3159 3160 3163 3162 3165 3167 3170 3173 3173 3174 3176 3178 3182 3184 3187 3190 3192 3194 3196 3197 3198 3197 3197 3197 3197 3196 3195 3194 3193 3192 3191 3191 3190 3190 3190 3190 3190 3189 3189 3189 3189 3189 3189
3147 3151 3153 3154 3154 3155 3157 3158 3159 3161 3163 3166 3169 3171 3170 3173 3176 3179 3180 3184 3186 3189 3191 3193 3195 3196 3197 3197 3197 3197 3196 3196 3195 3195 3195 3194 3193 3193 3192 3192 3191 3191 3191 3191 3191 3191 3190 3190 3190
3143 3148 3151 3149 3150 3152 3154 3157 3159 3160 3162 3165 3167 3170 3171 3173 3175 3177 3179 3184 3186 3188 3190 3192 3194 3195 3196 3197 3197 3196 3196 3196 3197 3197 3196 3196 3195 3195 3194 3194 3193 3193 3192 3192 3192 3192 3192 3192 3192
3140 3143 3145 3146 3147 3148 3152 3158 3158 3160 3162 3164 3166 3168 3169 3172 3175 3176 3177 3182 3186 3187 3189 3190 3192 3194 3195 3196 3196 3196 3196 3196 3197 3198 3198 3198 3197 3197 3196 3196 3195 3195 3195 3194 3194 3194 3194 3194 3193
3140 3140 3141 3142 3145 3146 3152 3156 3158 3159 3161 3163 3165 3166 3168 3171 3173 3175 3176 3180 3183 3185 3186 3188 3191 3193 3194 3195 3195 3196 3197 3197 3197 3197 3198 3199 3198 3198 3198 3197 3197 3197 3197 3197 3196 3196 3195 3195 3195
3132 3138 3137 3141 3142 3142 3149 3155 3157 3158 3159 3162 3164 3165 3167 3169 3171 3173 3174 3178 3181 3183 3184 3186 3189 3191 3192 3193 3194 3196 3196 3197 3197 3197 3197 3198 3199 3199 3199 3199 3199 3199 3198 3198 3198 3198 3197 3197 3196
3126 3134 3135 3138 3141 3141 3147 3153 3155 3157 3158 3160 3161 3162 3165 3166 3169 3172 3173 3177 3179 3181 3183 3185 3187 3188 3190 3191 3193 3195 3196 3197 3197 3196 3197 3197 3198 3199 3199 3199 3199 3199 3199 3198 3198 3198 3198 3198 3198
3120 3125 3128 3134 3140 3139 3141 3145 3152 3153 3156 3156 3157 3162 3165 3166 3169 3171 3173 3175 3178 3180 3182 3183 3185 3186 3188 3189 3191 3193 3194 3195 3197 3197 3197 3197 3197 3197 3198 3198 3199 3199 3199 3199 3198 3198 3198 3198 3198
3114 3116 3118 3128 3136 3136 3135 3144 3147 3151 3153 3154 3156 3160 3164 3165 3167 3169 3171 3173 3176 3178 3180 3182 3183 3185 3186 3188 3189 3191 3192 3193 3195 3196 3196 3196 3195 3195 3196 3196 3197 3197 3198 3198 3198 3198 3197 3197 3197
3109 3112 3119 3127 3133 3132 3137 3141 3145 3149 3150 3153 3154 3158 3162 3164 3165 3167 3169 3171 3174 3175 3177 3180 3182 3183 3185 3185 3187 3188 3189 3190 3192 3193 3193 3193 3194 3194 3194 3195 3195 3195 3195 3195 3196 3196 3196 3196 3195
3109 3113 3117 3126 3130 3127 3132 3136 3137 3146 3147 3148 3152 3155 3158 3162 3164 3166 3167 3169 3171 3173 3174 3176 3179 3180 3182 3183 3184 3185 3186 3187 3188 3189 3189 3189 3191 3192 3192 3192 3193 3193 3193 3193 3193 3193 3193 3193 3192
3103 3108 3115 3121 3123 3127 3131 3133 3136 3139 3143 3146 3149 3152 3154 3158 3161 3164 3166 3167 3168 3170 3172 3173 3175 3176 3178 3179 3180 3181 3183 3184 3185 3185 3186 3186 3186 3188 3189 3189 3189 3190 3190 3190 3189 3189 3189 3189 3189
3099 3108 3112 3117 3119 3128 3130 3132 3134 3140 3141 3144 3147 3150 3152 3153 3157 3160 3162 3164 3166 3168 3168 3170 3171 3173 3174 3175 3176 3177 3178 3180 3180 3180 3181 3182 3181 3183 3184 3185 3185 3185 3185 3185 3186 3185 3185 3184 3184
3099 3106 3110 3112 3116 3122 3127 3128 3131 3136 3137 3139 3142 3146 3148 3151 3153 3155 3157 3159 3160 3163 3166 3167 3167 3169 3170 3171 3172 3172 3172 3174 3175 3176 3176 3176 3177 3177 3179 3179 3180 3180 3180 3180 3180 3180 3180 3180 3180
3099 3103 3107 3108 3113 3118 3122 3122 3127 3132 3134 3135 3138 3140 3143 3146 3149 3151 3152 3153 3155 3156 3159 3162 3164 3164 3165 3166 3167 3167 3168 3168 3169 3171 3172 3172 3173 3174 3173 3174 3175 3174 3173 3173 3173 3173 3174 3174 3174
3095 3098 3102 3107 3110 3114 3118 3117 3124 3127 3128 3131 3134 3136 3139 3141 3144 3146 3147 3148 3149 3150 3151 3154 3156 3159 3161 3160 3162 3163 3163 3163 3164 3165 3166 3168 3169 3168 3167 3167 3168 3169 3169 3168 3167 3167 3167 3168 3168
3080 3089 3095 3100 3105 3109 3112 3113 3119 3121 3123 3125 3129 3131 3134 3136 3138 3140 3141 3141 3144 3146 3147 3148 3148 3151 3152 3154 3156 3157 3158 3158 3158 3159 3159 3160 3160 3161 3161 3161 3160 3161 3162 3162 3161 3160 3159 3160 3161
3086 3092 3098 3101 3104 3107 3108 3110 3113 3117 3118 3120 3123 3126 3129 3131 3133 3133 3134 3135 3139 3140 3142 3144 3147 3145 3145 3145 3145 3148 3151 3154 3154 3154 3154 3152 3152 3153 3153 3154 3154 3152 3153 3155 3154 3153 3153 3153 3154
3086 3090 3095 3098 3100 3105 3105 3104 3106 3110 3112 3116 3119 3122 3124 3126 3126 3126 3127 3128 3131 3134 3136 3137 3139 3140 3141 3141 3141 3139 3140 3143 3145 3148 3149 3149 3147 3146 3144 3144 3145 3145 3144 3144 3146 3145 3144 3145 3145
3084 3087 3091 3096 3097 3100 3100 3100 3100 3101 3106 3110 3113 3116 3118 3120 3120 3119 3120 3122 3126 3128 3129 3130 3131 3133 3134 3134 3134 3134 3134 3134 3135 3136 3138 3140 3140 3139 3137 3135 3135 3136 3136 3135 3135 3136 3136 3136 3137
3082 3087 3090 3091 3094 3097 3100 3095 3094 3097 3099 3102 3104 3107 3111 3112 3114 3112 3114 3117 3119 3121 3122 3123 3124 3125 3126 3126 3127 3127 3127 3126 3127 3126 3126 3128 3130 3130 3129 3128 3126 3125 3126 3126 3126 3125 3126 3126 3127
3082 3087 3090 3092 3093 3094 3096 3098 3086 3091 3090 3092 3096 3100 3102 3104 3106 3106 3108 3111 3111 3114 3114 3115 3116 3117 3118 3118 3119 3119 3119 3119 3118 3117 3117 3118 3119 3119 3120 3120 3118 3116 3116 3117 3118 3116 3116 3115 3115
3079 3084 3089 3091 3092 3094 3091 3093 3082 3082 3084 3088 3090 3092 3095 3097 3099 3101 3102 3103 3105 3107 3107 3108 3109 3109 3109 3111 3111 3111 3111 3111 3111 3111 3109 3108 3110 3110 3109 3109 3109 3108 3108 3107 3107 3107 3107 3106 3105
3076 3082 3090 3094 3093 3088 3085 3088 3077 3079 3080 3083 3085 3087 3089 3091 3093 3094 3097 3098 3099 3101 3101 3102 3102 3102 3102 3103 3104 3103 3102 3102 3102 3102 3101 3101 3100 3099 3098 3099 3101 3100 3099 3099 3098 3098 3097 3097 3096
3074 3080 3080 3085 3085 3080 3082 3077 3073 3074 3077 3079 3080 3082 3085 3087 3088 3091 3093 3093 3094 3095 3096 3096 3096 3096 3096 3096 3095 3094 3093 3092 3092 3093 3092 3092 3091 3091 3089 3089 3089 3091 3091 3091 3090 3089 3088 3087 3085
3071 3073 3078 3078 3077 3076 3073 3071 3070 3069 3072 3074 3075 3078 3080 3082 3084 3087 3089 3090 3090 3091 3091 3090 3090 3090 3089 3088 3087 3086 3084 3083 3082 3083 3084 3083 3082 3082 3081 3081 3080 3080 3080 3081 3080 3079 3078 3076 3076
3068 3073 3076 3075 3078 3074 3066 3066 3064 3064 3066 3068 3070 3074 3076 3079 3081 3083 3085 3085 3085 3085 3084 3083 3082 3081 3081 3080 3079 3078 3076 3075 3075 3076 3075 3075 3074 3074 3073 3072 3071 3070 3070 3070 3070 3069 3068 3066 3065
3064 3066 3070 3071 3071 3069 3067 3061 3060 3062 3063 3065 3068 3072 3073 3076 3078 3080 3080 3079 3080 3079 3078 3076 3075 3075 3073 3072 3071 3070 3069 3068 3068 3069 3068 3067 3067 3067 3065 3064 3063 3062 3061 3060 3059 3058 3057 3055 3055
3060 3062 3065 3066 3067 3066 3064 3059 3058 3059 3063 3065 3067 3068 3071 3073 3074 3075 3074 3074 3074 3072 3071 3069 3068 3067 3066 3066 3065 3064 3063 3062 3063 3063 3062 3060 3060 3059 3058 3057 3056 3056 3054 3053 3052 3050 3048 3047 3046